| time (UTC) | temp C | wind direction | speed KPH | gust KPH | rain 1hr cm | rain 24hr cm | rain mn cm | humidity % | barometer mb |
| 20260505054007 | 13 | 132 | 9.7 | 25.7 | 0.03 | 0.08 | 0.03 | 87 | 982.9 |
| 20260505053004 | 15 | 157 | 8.0 | 24.1 | 0.00 | 0.05 | 0.00 | 77 | 983.1 |
| 20260505052004 | 16 | 209 | 8.0 | 27.4 | 0.00 | 0.05 | 0.00 | 75 | 982.8 |
| 20260505051004 | 16 | 210 | 8.0 | 24.1 | 0.00 | 0.05 | 0.00 | 73 | 982.8 |
| 20260505041004 | 17 | 150 | 8.0 | 19.3 | 0.00 | 0.05 | 0.00 | 73 | 982.6 |
| 20260505035004 | 17 | 159 | 4.8 | 11.3 | 0.00 | 0.05 | 0.05 | 68 | 982.5 |
| 20260505034005 | 16 | 141 | 4.8 | 9.7 | 0.00 | 0.05 | 0.05 | 70 | 982.2 |
| 20260505033004 | 16 | 286 | 1.6 | 9.7 | 0.00 | 0.05 | 0.05 | 71 | 982.3 |
| 20260505032004 | 16 | 236 | 3.2 | 8.0 | 0.00 | 0.05 | 0.05 | 70 | 982.3 |
| 20260505031004 | 16 | 283 | 3.2 | 9.7 | 0.00 | 0.05 | 0.05 | 69 | 982.4 |
| 20260505030005 | 16 | 143 | 4.8 | 8.0 | 0.03 | 0.05 | 0.05 | 68 | 982.8 |
| 20260505024003 | 16 | 134 | 4.8 | 11.3 | 0.05 | 0.05 | 0.05 | 68 | 982.8 |
| 20260505023004 | 16 | 164 | 4.8 | 12.9 | 0.05 | 0.05 | 0.05 | 69 | 983.1 |
| 20260505022005 | 15 | 189 | 4.8 | 12.9 | 0.05 | 0.05 | 0.05 | 70 | 982.8 |
| 20260505021004 | 15 | 138 | 6.4 | 14.5 | 0.05 | 0.05 | 0.05 | 67 | 982.6 |
| 20260505020005 | 15 | 16 | 3.2 | 4.8 | 0.03 | 0.03 | 0.03 | 66 | 983.1 |
| 20260505015005 | 15 | 299 | 1.6 | 4.8 | 0.00 | 0.00 | 0.00 | 56 | 982.7 |
| 20260505014004 | 15 | 259 | 1.6 | 4.8 | 0.00 | 0.00 | 0.00 | 55 | 982.7 |
| 20260505013005 | 15 | 270 | 1.6 | 8.0 | 0.00 | 0.00 | 0.00 | 55 | 982.8 |
| 20260505012004 | 16 | 295 | 1.6 | 4.8 | 0.00 | 0.00 | 0.00 | 54 | 982.8 |
| 20260505011007 | 16 | 255 | 1.6 | 4.8 | 0.00 | 0.00 | 0.00 | 53 | 982.9 |
| 20260505010004 | 16 | 230 | 1.6 | 8.0 | 0.00 | 0.00 | 0.00 | 51 | 982.8 |
| 20260505005004 | 17 | 331 | 1.6 | 8.0 | 0.00 | 0.00 | 0.00 | 48 | 982.7 |
| 20260505004004 | 18 | 146 | 3.2 | 8.0 | 0.00 | 0.00 | 0.00 | 43 | 982.6 |
| 20260505003004 | 18 | 262 | 1.6 | 11.3 | 0.00 | 0.00 | 0.00 | 41 | 982.7 |
| 20260505001005 | 19 | 209 | 3.2 | 12.9 | 0.00 | 0.00 | 0.00 | 39 | 982.6 |
| 20260505000005 | 20 | 244 | 4.8 | 12.9 | 0.00 | 0.00 | 0.00 | 38 | 982.7 |
| 20260504235004 | 20 | 183 | 4.8 | 14.5 | 0.00 | 0.00 | 0.00 | 38 | 982.7 |
| 20260504234004 | 20 | 139 | 9.7 | 19.3 | 0.00 | 0.00 | 0.00 | 36 | 982.7 |
| 20260504233004 | 21 | 227 | 3.2 | 16.1 | 0.00 | 0.00 | 0.00 | 36 | 982.8 |
| 20260504231005 | 21 | 194 | 6.4 | 19.3 | 0.00 | 0.00 | 0.00 | 37 | 982.9 |
| 20260504230005 | 21 | 212 | 8.0 | 14.5 | 0.00 | 0.00 | 0.00 | 40 | 983.0 |
| 20260504225004 | 21 | 180 | 6.4 | 19.3 | 0.00 | 0.00 | 0.00 | 41 | 983.0 |
| 20260504224004 | 21 | 193 | 9.7 | 20.9 | 0.00 | 0.00 | 0.00 | 40 | 983.0 |
| 20260504223004 | 21 | 185 | 8.0 | 19.3 | 0.00 | 0.00 | 0.00 | 40 | 983.0 |
| 20260504222005 | 21 | 230 | 4.8 | 19.3 | 0.00 | 0.00 | 0.00 | 40 | 982.9 |
| 20260504221005 | 21 | 117 | 9.7 | 22.5 | 0.00 | 0.00 | 0.00 | 39 | 983.1 |
| 20260504220005 | 21 | 157 | 9.7 | 24.1 | 0.00 | 0.00 | 0.00 | 35 | 982.9 |
| 20260504215004 | 21 | 223 | 11.3 | 33.8 | 0.00 | 0.00 | 0.00 | 34 | 983.0 |
| 20260504214004 | 22 | 195 | 12.9 | 27.4 | 0.00 | 0.00 | 0.00 | 33 | 982.9 |
| 20260504213005 | 22 | 183 | 8.0 | 24.1 | 0.00 | 0.00 | 0.00 | 34 | 982.8 |
| 20260504212004 | 22 | 179 | 9.7 | 25.7 | 0.00 | 0.00 | 0.00 | 35 | 982.7 |
| 20260504211004 | 22 | 167 | 11.3 | 27.4 | 0.00 | 0.00 | 0.00 | 36 | 982.9 |
| 20260504210004 | 21 | 178 | 11.3 | 27.4 | 0.00 | 0.00 | 0.00 | 38 | 983.0 |
| 20260504205004 | 21 | 203 | 8.0 | 27.4 | 0.00 | 0.00 | 0.00 | 39 | 983.2 |
| 20260504204003 | 21 | 175 | 8.0 | 33.8 | 0.00 | 0.00 | 0.00 | 41 | 983.5 |
| 20260504203004 | 21 | 169 | 8.0 | 33.8 | 0.00 | 0.00 | 0.00 | 42 | 983.6 |
| 20260504202005 | 21 | 166 | 11.3 | 33.8 | 0.00 | 0.00 | 0.00 | 41 | 983.5 |
| 20260504201004 | 21 | 171 | 8.0 | 20.9 | 0.00 | 0.00 | 0.00 | 41 | 983.5 |
| 20260504200004 | 21 | 123 | 8.0 | 19.3 | 0.00 | 0.00 | 0.00 | 41 | 983.6 |
| 20260504195004 | 21 | 165 | 9.7 | 24.1 | 0.00 | 0.00 | 0.00 | 41 | 983.8 |
| 20260504193004 | 21 | 185 | 12.9 | 25.7 | 0.00 | 0.00 | 0.00 | 40 | 984.1 |
| 20260504191004 | 21 | 162 | 11.3 | 24.1 | 0.00 | 0.00 | 0.00 | 41 | 984.5 |
| 20260504190004 | 21 | 208 | 12.9 | 27.4 | 0.00 | 0.00 | 0.00 | 41 | 984.5 |
| 20260504185004 | 21 | 177 | 14.5 | 27.4 | 0.00 | 0.00 | 0.00 | 41 | 984.5 |
| 20260504184005 | 20 | 146 | 8.0 | 33.8 | 0.00 | 0.00 | 0.00 | 43 | 984.7 |
| 20260504183004 | 20 | 184 | 16.1 | 27.4 | 0.00 | 0.00 | 0.00 | 43 | 985.0 |
| 20260504181004 | 21 | 140 | 4.8 | 25.7 | 0.00 | 0.00 | 0.00 | 45 | 984.9 |
| 20260504180004 | 20 | 189 | 6.4 | 22.5 | 0.00 | 0.00 | 0.00 | 46 | 985.2 |
| 20260504175004 | 19 | 180 | 9.7 | 29.0 | 0.00 | 0.00 | 0.00 | 47 | 985.6 |
| 20260504174004 | 19 | 182 | 16.1 | 29.0 | 0.00 | 0.00 | 0.00 | 47 | 985.7 |
| 20260504171005 | 18 | 179 | 11.3 | 33.8 | 0.00 | 0.00 | 0.00 | 48 | 985.6 |
| 20260504151004 | 16 | 196 | 14.5 | 27.4 | 0.00 | 0.00 | 0.00 | 51 | 986.6 |
| 20260504141004 | 15 | 131 | 11.3 | 27.4 | 0.00 | 0.00 | 0.00 | 54 | 986.6 |
| 20260504082004 | 10 | 141 | 6.4 | 12.9 | 0.00 | 0.00 | 0.00 | 65 | 987.5 |
| 20260504081005 | 10 | 193 | 4.8 | 11.3 | 0.00 | 0.00 | 0.00 | 68 | 987.5 |